Date,TemperatureHighF,TemperatureAvgF,TemperatureLowF,DewpointHighF,DewpointAvgF,DewpointLowF,HumidityHigh,HumidityAvg,HumidityLow,PressureMaxIn,PressureMinIn,WindSpeedMaxMPH,WindSpeedAvgMPH,GustSpeedMaxMPH,PrecipitationSumIn
2013-3-1,54.9,36.0,22.6,37.3,25.2,15.0,85,67,40,30.40,30.28,8,2,14,0.00
2013-3-2,56.8,40.0,22.3,41.1,29.1,16.2,89,67,42,30.28,30.11,12,2,14,0.00
2013-3-3,48.4,40.3,36.8,38.4,32.3,28.5,82,73,55,30.12,29.95,9,2,13,0.00
2013-3-4,49.4,37.2,25.3,31.0,26.4,19.1,77,65,47,29.95,29.62,9,2,13,0.00
2013-3-5,52.0,35.7,21.9,36.2,24.7,15.5,87,66,39,29.62,29.52,7,2,12,0.00
2013-3-6,37.4,35.9,34.7,32.7,30.4,27.6,85,80,75,29.60,29.55,15,8,20,0.00
2013-3-7,40.4,37.6,36.0,37.4,34.1,31.6,90,87,84,29.55,29.47,15,8,23,0.12
2013-3-8,36.0,35.1,34.2,32.8,31.3,30.3,88,86,82,29.61,29.47,21,12,29,0.20
2013-3-9,35.0,33.6,31.3,30.8,27.5,20.5,87,78,63,29.80,29.61,22,14,28,0.12
2013-3-10,38.8,28.7,19.6,28.2,19.6,13.2,77,69,56,29.98,29.79,20,12,29,0.00
2013-3-11,35.9,23.9,12.0,15.0,8.9,0.8,76,54,33,30.00,29.98,18,8,22,0.00
2013-3-12,51.1,30.1,12.4,25.8,15.3,2.2,78,55,28,29.99,29.76,13,3,22,0.00
2013-3-13,50.4,32.4,18.5,22.9,14.7,-0.3,70,51,19,29.85,29.74,13,5,22,0.00
2013-3-14,48.8,33.4,17.3,34.7,24.5,8.3,83,70,51,29.84,29.44,12,3,19,0.04
2013-3-15,52.0,36.6,24.4,39.0,29.4,17.3,84,75,55,29.44,29.24,18,5,22,0.20
2013-3-16,34.0,30.2,22.8,29.2,25.2,17.3,84,82,79,29.27,29.08,8,2,13,0.02
2013-3-17,38.0,34.1,30.4,31.7,28.8,26.1,86,81,73,29.16,29.02,18,7,28,0.32
2013-3-18,35.3,32.3,28.0,31.8,27.5,22.8,87,82,77,29.42,29.16,23,15,31,0.14
2013-3-19,32.9,30.4,27.9,27.4,25.5,23.7,85,82,77,29.55,29.42,26,17,35,0.00
2013-3-20,37.0,31.6,27.9,27.5,24.9,21.2,83,76,62,29.92,29.55,15,6,19,0.08
2013-3-21,43.8,31.5,25.0,26.8,22.1,17.3,79,68,45,29.95,29.88,21,11,32,0.04
2013-3-22,31.6,29.8,28.0,26.1,24.6,21.1,87,81,66,29.91,29.83,32,18,40,0.00
2013-3-23,29.5,28.4,27.5,25.5,23.0,17.6,87,80,65,30.06,29.90,24,16,38,0.00
2013-3-24,32.7,29.3,27.3,20.2,18.2,16.5,71,63,52,30.16,30.05,23,15,31,0.00
2013-3-25,36.5,30.6,28.0,21.7,19.0,15.8,72,62,50,30.17,30.12,21,14,28,0.00
2013-3-26,39.5,30.0,20.3,25.0,18.6,11.0,74,63,43,30.12,30.03,18,9,25,0.00
2013-3-27,43.2,30.8,25.0,27.7,20.6,17.0,78,66,45,30.03,29.95,20,10,21,0.00
2013-3-28,48.4,32.0,23.2,27.7,19.7,13.4,79,61,38,29.97,29.91,16,6,18,0.00
2013-3-29,42.9,28.5,18.4,26.0,16.9,8.7,81,63,46,29.91,29.79,15,5,17,0.00
2013-3-30,56.3,29.2,15.3,27.8,14.2,3.4,83,56,19,29.88,29.83,8,2,10,0.00
2013-3-31,45.8,29.3,11.8,32.9,13.8,1.7,81,54,19,29.88,29.85,13,4,17,0.00